Location: ????????
(56.1167°N, 38.6333°E)
Time: 21:29:32
(UTC+00:00)

BREEZE-M DEB (TANK) - Pass Details

Date: 18 November 2025
Orbit: 285 x 18364 km, 52.5° (Epoch: 05 December)

Event Time Altitude Azimuth Distance (km) Brightness Sun altitude
Rises 15:39:50 0° 231° (SW) 2,174 6.8 -20.0°
Reaches altitude 10° 15:41:11 10° 222° (SW) 1,554 5.7 -20.2°
Maximum altitude 15:44:01 42° 148° (SSE) 1,015 3.9 -20.6°
Enters shadow 15:45:08 37° 115° (ESE) 1,314 4.2 -20.7°
